* Astronomy

Members Login
Post Info TOPIC: Ariane 5 SYLDA re-entry


L

Posts: 131433
Date:
RE: Ariane 5 SYLDA re-entry
Permalink  
 


Update
The SYLDA re-entered the Earths atmosphere on the 21st June, 2011 @ 15:16 GMT 2 minutes.

Inclination: 2.11
Revolution Number: 658
Predicted Location: 0.4N, 34.2E



__________________


L

Posts: 131433
Date:
Permalink  
 

Update
The SYLDA is predicted to re-enter the Earths atmosphere on the 21st June, 2011 @ 15:16 GMT 7 hours.

sylda-1.gif

SYLDA
1 37240U 10065D   11171.77202922  .74970770 -20539-4  44382-2 0  1697
2 37240 002.1221 009.4754 1282969 134.6927 208.4830 13.49275938  6444

Period: 120.15 minutes
Inclination: 2.11
Apogee: 3252 km
Perigee: 124 km
Revolution Number: 658
Predicted Location: 0.4N, 34.2E



__________________


L

Posts: 131433
Date:
Permalink  
 

Update
The SYLDA is predicted to re-enter the Earths atmosphere on the 21st June, 2011 @ 15:16 GMT 12 hours.

Period: 120.15 minutes
Inclination: 2.11
Apogee: 3252 km
Perigee: 124 km
Revolution Number: 658
Predicted Location: 0.4N, 34.3E



__________________


L

Posts: 131433
Date:
Permalink  
 

Update
The SYLDA is predicted to re-enter the Earths atmosphere on the 21st June, 2011 @ 15:14 GMT 15 hours.

SYLDA
1 37240U 10065D 11171.55294906 .67741899 -19264-4 41839-2 0 1682
2 37240 002.1056 010.5541 1411122 132.5142 236.6503 13.19764431 6413

Period: 120.15 minutes
Inclination: 2.11
Apogee: 3252 km
Perigee: 124 km
Revolution Number: 658
Predicted Location: 0.3N, 37.4E



__________________


L

Posts: 131433
Date:
Permalink  
 

Update
The Ariane 5 ECA (SYLDA) debris is predicted to re-enter the Earths atmosphere on the 21st June, 2011 @ 11:37 GMT 24 hours.

SYLDA
1 37240U 10065D 11170.84694109 .50223966 -16190-4 41087-2 0 1673
2 37240 002.1191 014.2314 1756612 124.7004 229.7064 12.40322192 6320

Period: 120.15 minutes
Inclination: 2.11
Apogee: 3252 km
Perigee: 124 km
Revolution Number: 655
Predicted Location: 0.3N, 91E



__________________


L

Posts: 131433
Date:
Permalink  
 

Update
The Ariane 5 ECA (SYLDA) debris is predicted to re-enter the Earths atmosphere on the 21st June, 2011 @ 17:04 GMT 48 hours.

SYLDA
1 37240U 10065D 11168.91244213 .31451158 -80288-5 37991-2 0 1613
2 37240 002.1288 023.0606 2417893 107.2133 068.9190 10.93614436 6104

Period: 134.96 minutes
Inclination: 2.10
Apogee: 4545 km
Perigee: 130 km
Revolution Number: 659
Predicted Location: 0.2S, 25.2E



__________________


L

Posts: 131433
Date:
Permalink  
 

An Ariane 5 ECA (SYLDA) debris that was launched on the 26th November, 2010, from Kourou, French Guiana, for the HYLAS 1 and Intelsat 17 satellite missions is predicted to re-enter the Earths atmosphere on the 22nd June, 2011 @ 04:14 GMT 72 hours.

SYLDA
1 37240U 10065D 11168.39086090 .23016494 -67328-5 35073-2 0 1566
2 37240 002.1193 025.1435 2553173 103.1020 204.3493 10.63720660 6043

syldab.gif
Expand (27kb 857 x 564)

Period: 149.58 minutes
Inclination: 2.11
Apogee: 5794 km
Perigee: 118 km
Revolution Number: 665
Predicted Location: 0.5N, 192.4E



__________________
Page 1 of 1  sorted by
 
Quick Reply

Please log in to post quick replies.



Create your own FREE Forum
Report Abuse
Powered by ActiveBoard